When you browse on this site, cookies collect data to enhance your experience and personalize the content and advertising you see.
Visit our Privacy Policy to learn more. By continuing to use the site, you agree to this use of cookies and data.

Stündliche Wetter Akhaltsikhe

Heute, 10 Juli, Freitag

Zeit Temperatur Niederschläge Wind Luftdruck Luftfeuchtigkeit
00:00 +15°C° 0 mm 1 m/S 650 mmHg 97%
01:00 +15°C° 0 mm 1 m/S 650 mmHg 97%
02:00 +14°C° 0 mm 0 m/S 650 mmHg 97%
03:00 +14°C° 0 mm 0 m/S 650 mmHg 97%
04:00 +15°C° 0 mm 0 m/S 650 mmHg 96%
05:00 +15°C° 0 mm 0 m/S 651 mmHg 95%
06:00 +15°C° 0 mm 0 m/S 651 mmHg 95%
07:00 +16°C° 0 mm 0 m/S 651 mmHg 89%
08:00 +18°C° 0 mm 0 m/S 651 mmHg 83%
09:00 +21°C° 0 mm 1 m/S 652 mmHg 77%
10:00 +22°C° 0.1 mm 1 m/S 652 mmHg 74%
11:00 +23°C° 0.1 mm 1 m/S 652 mmHg 72%
12:00 +24°C° 0.1 mm 1 m/S 652 mmHg 69%
13:00 +23°C° 0.6 mm 1 m/S 652 mmHg 72%
14:00 +23°C° 0.6 mm 2 m/S 651 mmHg 76%
15:00 +23°C° 0.6 mm 2 m/S 651 mmHg 79%
16:00 +21°C° 0.7 mm 2 m/S 651 mmHg 82%
17:00 +20°C° 0.7 mm 2 m/S 651 mmHg 86%
18:00 +20°C° 0.7 mm 2 m/S 651 mmHg 89%
19:00 +20°C° 0.2 mm 1 m/S 651 mmHg 92%
20:00 +19°C° 0.2 mm 1 m/S 651 mmHg 95%
21:00 +18°C° 0.2 mm 1 m/S 651 mmHg 97%
22:00 +18°C° 0 mm 1 m/S 651 mmHg 98%
23:00 +18°C° 0 mm 1 m/S 651 mmHg 98%

Morgen, 11 Juli, Samstag

Zeit Temperatur Niederschläge Wind Luftdruck Luftfeuchtigkeit
00:00 +16°C° 0 mm 1 m/S 651 mmHg 98%
01:00 +16°C° 0 mm 1 m/S 651 mmHg 98%
02:00 +15°C° 0 mm 0 m/S 650 mmHg 98%
03:00 +15°C° 0 mm 0 m/S 650 mmHg 98%
04:00 +15°C° 0 mm 0 m/S 650 mmHg 97%
05:00 +15°C° 0 mm 0 m/S 650 mmHg 97%
06:00 +15°C° 0 mm 0 m/S 650 mmHg 96%
07:00 +16°C° 0.1 mm 0 m/S 651 mmHg 94%
08:00 +19°C° 0.1 mm 1 m/S 651 mmHg 91%
09:00 +20°C° 0.1 mm 1 m/S 651 mmHg 89%
10:00 +21°C° 0.9 mm 1 m/S 651 mmHg 84%
11:00 +22°C° 0.9 mm 1 m/S 651 mmHg 80%
12:00 +23°C° 0.9 mm 2 m/S 651 mmHg 76%
13:00 +23°C° 1.1 mm 2 m/S 651 mmHg 78%
14:00 +23°C° 1.1 mm 2 m/S 650 mmHg 80%
15:00 +23°C° 1.1 mm 2 m/S 650 mmHg 82%
16:00 +21°C° 0.8 mm 2 m/S 650 mmHg 85%
17:00 +21°C° 0.8 mm 1 m/S 650 mmHg 88%
18:00 +21°C° 0.8 mm 1 m/S 650 mmHg 90%
19:00 +20°C° 0.1 mm 1 m/S 649 mmHg 92%
20:00 +18°C° 0.1 mm 1 m/S 649 mmHg 94%
21:00 +16°C° 0.1 mm 1 m/S 649 mmHg 96%
22:00 +15°C° 0 mm 0 m/S 649 mmHg 96%
23:00 +14°C° 0 mm 0 m/S 649 mmHg 96%

übermorgen, 12 Juli, Sonntag

Zeit Temperatur Niederschläge Wind Luftdruck Luftfeuchtigkeit
00:00 +14°C° 0 mm 0 m/S 648 mmHg 95%
01:00 +14°C° 0 mm 0 m/S 648 mmHg 95%
02:00 +14°C° 0 mm 0 m/S 648 mmHg 95%
03:00 +13°C° 0 mm 0 m/S 647 mmHg 94%
04:00 +14°C° 0 mm 0 m/S 647 mmHg 94%
05:00 +14°C° 0 mm 0 m/S 647 mmHg 94%
06:00 +15°C° 0 mm 0 m/S 647 mmHg 93%
07:00 +19°C° 0.1 mm 1 m/S 648 mmHg 87%
08:00 +21°C° 0.1 mm 1 m/S 648 mmHg 81%
09:00 +23°C° 0.1 mm 1 m/S 649 mmHg 75%
10:00 +23°C° 0.6 mm 1 m/S 649 mmHg 74%
11:00 +24°C° 0.6 mm 1 m/S 649 mmHg 73%
12:00 +25°C° 0.6 mm 2 m/S 649 mmHg 72%
13:00 +25°C° 1.2 mm 2 m/S 649 mmHg 74%
14:00 +25°C° 1.2 mm 1 m/S 648 mmHg 76%
15:00 +25°C° 1.2 mm 1 m/S 648 mmHg 78%
16:00 +24°C° 1 mm 1 m/S 648 mmHg 81%
17:00 +23°C° 1 mm 1 m/S 648 mmHg 84%
18:00 +23°C° 1 mm 1 m/S 648 mmHg 86%
19:00 +21°C° 0.5 mm 1 m/S 647 mmHg 89%
20:00 +20°C° 0.5 mm 1 m/S 647 mmHg 92%
21:00 +18°C° 0.5 mm 1 m/S 647 mmHg 94%
22:00 +18°C° 0.1 mm 1 m/S 647 mmHg 94%
23:00 +18°C° 0.1 mm 1 m/S 647 mmHg 94%

13 Juli, Montag

Zeit Temperatur Niederschläge Wind Luftdruck Luftfeuchtigkeit
00:00 +16°C° 0.1 mm 1 m/S 647 mmHg 94%
01:00 +15°C° 0.1 mm 0 m/S 646 mmHg 95%
02:00 +15°C° 0.1 mm 0 m/S 646 mmHg 95%
03:00 +15°C° 0.1 mm 0 m/S 646 mmHg 95%
04:00 +15°C° 0.4 mm 0 m/S 646 mmHg 95%
05:00 +16°C° 0.4 mm 0 m/S 646 mmHg 95%
06:00 +16°C° 0.4 mm 0 m/S 646 mmHg 95%
07:00 +17°C° 0.2 mm 0 m/S 646 mmHg 92%
08:00 +18°C° 0.2 mm 0 m/S 646 mmHg 89%
09:00 +21°C° 0.2 mm 1 m/S 646 mmHg 86%
10:00 +23°C° 0.4 mm 1 m/S 647 mmHg 80%
11:00 +24°C° 0.4 mm 1 m/S 647 mmHg 75%
12:00 +25°C° 0.4 mm 1 m/S 647 mmHg 70%
13:00 +25°C° 1.2 mm 2 m/S 647 mmHg 74%
14:00 +24°C° 1.2 mm 2 m/S 647 mmHg 78%
15:00 +24°C° 1.2 mm 2 m/S 647 mmHg 82%
16:00 +23°C° 1.3 mm 2 m/S 647 mmHg 84%
17:00 +21°C° 1.3 mm 2 m/S 647 mmHg 87%
18:00 +22°C° 1.3 mm 1 m/S 647 mmHg 90%
19:00 +20°C° 0.3 mm 1 m/S 647 mmHg 92%
20:00 +19°C° 0.3 mm 1 m/S 647 mmHg 93%
21:00 +18°C° 0.3 mm 1 m/S 647 mmHg 95%
22:00 +16°C° 0.1 mm 0 m/S 647 mmHg 96%
23:00 +16°C° 0.1 mm 0 m/S 647 mmHg 96%

14 Juli, Dienstag

Zeit Temperatur Niederschläge Wind Luftdruck Luftfeuchtigkeit
00:00 +16°C° 0.1 mm 0 m/S 647 mmHg 96%
01:00 +16°C° 0 mm 0 m/S 647 mmHg 96%
02:00 +16°C° 0 mm 0 m/S 647 mmHg 96%
03:00 +16°C° 0 mm 0 m/S 647 mmHg 96%
04:00 +16°C° 0 mm 0 m/S 648 mmHg 96%
05:00 +16°C° 0 mm 0 m/S 648 mmHg 95%
06:00 +16°C° 0 mm 0 m/S 648 mmHg 95%
07:00 +18°C° 0 mm 0 m/S 648 mmHg 89%
08:00 +19°C° 0 mm 0 m/S 649 mmHg 82%
09:00 +22°C° 0 mm 1 m/S 649 mmHg 76%
10:00 +24°C° 0.1 mm 1 m/S 649 mmHg 70%
11:00 +25°C° 0.1 mm 1 m/S 650 mmHg 64%
12:00 +27°C° 0.1 mm 1 m/S 650 mmHg 58%
13:00 +26°C° 0.4 mm 1 m/S 650 mmHg 62%
14:00 +25°C° 0.4 mm 2 m/S 649 mmHg 67%
15:00 +25°C° 0.4 mm 2 m/S 649 mmHg 71%
16:00 +24°C° 0.4 mm 2 m/S 649 mmHg 77%
17:00 +23°C° 0.4 mm 2 m/S 649 mmHg 83%
18:00 +21°C° 0.4 mm 2 m/S 649 mmHg 88%
19:00 +21°C° 0.2 mm 1 m/S 649 mmHg 91%
20:00 +19°C° 0.2 mm 1 m/S 649 mmHg 94%
21:00 +18°C° 0.2 mm 1 m/S 650 mmHg 97%
22:00 +18°C° 0 mm 1 m/S 650 mmHg 97%
23:00 +18°C° 0 mm 1 m/S 650 mmHg 97%

15 Juli, Mittwoch

Zeit Temperatur Niederschläge Wind Luftdruck Luftfeuchtigkeit
00:00 +16°C° 0 mm 0 m/S 650 mmHg 98%
01:00 +16°C° 0 mm 0 m/S 650 mmHg 98%
02:00 +16°C° 0 mm 0 m/S 649 mmHg 98%
03:00 +16°C° 0 mm 0 m/S 649 mmHg 98%
04:00 +16°C° 0 mm 0 m/S 649 mmHg 97%
05:00 +16°C° 0 mm 0 m/S 650 mmHg 96%
06:00 +16°C° 0 mm 0 m/S 650 mmHg 96%
07:00 +17°C° 0 mm 0 m/S 650 mmHg 91%
08:00 +18°C° 0 mm 0 m/S 650 mmHg 87%
09:00 +22°C° 0 mm 1 m/S 650 mmHg 82%
10:00 +22°C° 0 mm 1 m/S 650 mmHg 79%
11:00 +23°C° 0 mm 1 m/S 650 mmHg 76%
12:00 +24°C° 0 mm 1 m/S 650 mmHg 73%
13:00 +24°C° 0.4 mm 1 m/S 650 mmHg 75%
14:00 +24°C° 0.4 mm 2 m/S 650 mmHg 77%
15:00 +24°C° 0.4 mm 2 m/S 650 mmHg 79%
16:00 +23°C° 0.5 mm 2 m/S 650 mmHg 83%
17:00 +21°C° 0.5 mm 2 m/S 650 mmHg 87%
18:00 +20°C° 0.5 mm 2 m/S 650 mmHg 92%
19:00 +20°C° 0.2 mm 1 m/S 650 mmHg 94%
20:00 +19°C° 0.2 mm 1 m/S 650 mmHg 96%
21:00 +18°C° 0.2 mm 1 m/S 650 mmHg 98%
22:00 +18°C° 0 mm 1 m/S 650 mmHg 98%
23:00 +18°C° 0 mm 1 m/S 649 mmHg 98%
Mehr zeigen